Home   Weather   Mülheim   Past weeks

Flag for Germany Past Weather in Mülheim, North Rhine-Westphalia, Germany — Yesterday and Last 2 Weeks

Now
55 °F

Rain. Clear.


Feels Like: 54 °F
Forecast: 50 / 60 °F
Wind: 6 mph from East

Location: Koeln / Bonn

Current Time: Oct 1, 2016 at 5:27:28 AM

Latest Report: Oct 1, 2016 at 4:50 AM


Visibility: N/A

Pressure: 29.83 "Hg

Humidity: 94%

Dew Point: 54 °F

Location of MülheimLocation

Past Weather in Mülheim — Graph

°F

Mülheim Temperature Yesterday

Maximum temperature yesterday: 66 °F (at 1:20 PM)
Minimum temperature yesterday: 52 °F (at 9:50 PM)
Average temperature yesterday: 60 °F

High & Low Weather Summary for the Past Weeks

 TemperatureHumidityPressure
High81 °F (Sep 25, 3:50 PM)100% (Sep 17, 2:20 AM)30.33 "Hg (Sep 17, 2:20 AM)
Low43 °F (Sep 22, 2:50 AM)32% (Sep 25, 4:20 PM)29.86 "Hg (Oct 1, 3:50 AM)
Average61 °F73%30.11 "Hg
* Reported Sep 16 4:20 AM — Oct 1 4:20 AM, Mülheim, Weather by CustomWeather, © 2016

Note: Actual official high and low records may vary slightly from our data, if they occured in-between our weather recording intervals... More about our weather records

Advertising

Mülheim Weather History for the Previous 24 Hours

Scroll right to see more
 ConditionsComfort  
Time TempWeatherWind HumidityBarometerVisibility
4:20 AM
Sat, Oct 1
55 °FLight rain. Overcast.7 mph94%29.86 "HgN/A
3:50 AM55 °FLight rain. Clear.6 mph94%29.86 "HgN/A
3:20 AM55 °FLight rain. Overcast.3 mph94%29.89 "HgN/A
2:50 AM55 °FLight rain. Clear.6 mph94%29.89 "HgN/A
2:20 AM55 °FLight rain. Clear.6 mph88%29.89 "HgN/A
1:50 AM55 °FLight rain. Clear.5 mph88%29.92 "HgN/A
1:20 AM55 °FPassing clouds.5 mph88%29.92 "HgN/A
12:50 AM55 °FLight rain. Clear.3 mph88%29.92 "HgN/A
12:20 AM55 °FClear.5 mph88%29.95 "Hg10 mi
11:50 PM
Fri, Sep 30
55 °FLight rain. Clear.5 mph88%29.95 "HgN/A
11:20 PM55 °FClear.5 mph88%29.95 "Hg10 mi
10:50 PM55 °FClear.3 mph82%29.95 "Hg10 mi
10:20 PM52 °FClear.5 mph88%29.95 "Hg10 mi
9:50 PM52 °FClear.2 mph88%29.95 "Hg10 mi
9:20 PM55 °FPassing clouds.5 mph77%29.95 "HgN/A
8:50 PM55 °FPassing clouds.5 mph77%29.95 "HgN/A
8:20 PM55 °FClear.No wind77%29.95 "Hg10 mi
7:50 PM55 °FClear.1 mph77%29.95 "Hg10 mi
7:20 PM57 °FPassing clouds.2 mph72%29.95 "HgN/A
6:50 PM61 °FPartly sunny.2 mph63%29.95 "HgN/A
6:20 PM63 °FPartly sunny.5 mph56%29.95 "HgN/A
5:50 PM64 °FPartly sunny.7 mph52%29.95 "HgN/A
5:20 PM64 °FPartly sunny.12 mph52%29.95 "HgN/A
4:50 PM64 °FBroken clouds.12 mph52%29.98 "HgN/A
4:20 PM66 °FPartly sunny.15 mph49%29.98 "HgN/A
3:50 PM66 °FBroken clouds.12 mph52%29.98 "HgN/A
3:20 PM66 °FBroken clouds.12 mph49%29.98 "HgN/A
2:50 PM66 °FPartly sunny.10 mph49%29.98 "HgN/A
2:20 PM66 °FBroken clouds.12 mph52%29.98 "HgN/A
1:50 PM66 °FPartly sunny.12 mph52%29.98 "HgN/A
1:20 PM66 °FMore clouds than sun.14 mph56%29.98 "HgN/A
12:50 PM64 °FMore clouds than sun.16 mph56%29.98 "HgN/A
12:20 PM64 °FLight rain. Broken clouds.13 mph60%29.98 "HgN/A
11:50 AM64 °FLight rain. Broken clouds.10 mph64%29.98 "HgN/A
11:20 AM63 °FPartly sunny.13 mph64%29.98 "HgN/A
10:50 AM64 °FPartly sunny.13 mph60%29.98 "HgN/A
10:20 AM63 °FPartly sunny.12 mph68%29.98 "HgN/A
9:50 AM63 °FPartly sunny.9 mph68%29.95 "HgN/A
9:20 AM59 °FBroken clouds.6 mph77%29.95 "HgN/A
8:50 AM57 °FBroken clouds.3 mph82%29.95 "HgN/A
8:20 AM55 °FPartly sunny.3 mph88%29.95 "HgN/A
7:50 AM55 °FPartly sunny.6 mph88%29.95 "HgN/A
7:20 AM55 °FPassing clouds.7 mph88%29.95 "HgN/A
6:50 AM55 °FLight rain. Partly cloudy.6 mph88%29.95 "HgN/A
6:20 AM55 °FLight rain. Partly cloudy.5 mph88%29.95 "HgN/A
5:50 AM57 °FLight rain. Passing clouds.6 mph82%29.95 "HgN/A
5:20 AM57 °FLight rain. Passing clouds.7 mph82%29.95 "HgN/A
Weather by CustomWeather, © 2016

See weather overviewHow to use our weather pages